Voltar ao catálogo

STARLINK-35340

AtivoComunicaçõesVLEO
NORAD 66022·PAYLOAD·🇺🇸 United States

Lançado Oct 16, 2025 de Cape Canaveral Space Force Station

Loading…

Próximas Passagens (próximas 24 horas)

TLE

AtualizadoSource: CelesTrak SupGP

Época: Sep 15, 2026, 03:21 UTC

1 66022C 25232T   26258.14006944  .00026545  00000+0  78418-3 0  2581
2 66022  53.1585 303.0710 0001186  91.5117 258.7180 15.34382017    15

Acompanhe STARLINK-35340 em tempo real com AllMySat

Download on the App Store